TimeEST,TemperatureF,Dew PointF,Humidity,Sea Level PressureIn,VisibilityMPH,Wind Direction,Wind SpeedMPH,Gust SpeedMPH,PrecipitationIn,Events,Conditions,WindDirDegrees,DateUTC
12:20 AM,33.8,28.4,81,29.91,8.0,NW,6.9,-,N/A,,Overcast,310,2013-02-25 05:20:00
12:48 AM,33.8,28.4,81,29.92,10.0,NNW,8.1,-,N/A,,Overcast,330,2013-02-25 05:48:00
12:52 AM,33.1,28.0,82,29.93,10.0,NNW,9.2,-,N/A,,Overcast,330,2013-02-25 05:52:00
1:33 AM,33.8,28.4,81,29.94,10.0,NNW,6.9,-,N/A,,Overcast,340,2013-02-25 06:33:00
1:52 AM,33.1,28.0,82,29.94,10.0,North,6.9,-,N/A,,Overcast,360,2013-02-25 06:52:00
2:52 AM,33.1,27.0,78,29.95,10.0,NNW,4.6,-,N/A,,Mostly Cloudy,330,2013-02-25 07:52:00
3:52 AM,32.0,26.1,79,29.97,10.0,NNW,4.6,-,N/A,,Partly Cloudy,340,2013-02-25 08:52:00
5:52 AM,28.9,25.0,85,30.02,10.0,Calm,Calm,-,N/A,,Clear,0,2013-02-25 10:52:00
6:52 AM,27.0,24.1,89,30.05,7.0,Calm,Calm,-,N/A,,Clear,0,2013-02-25 11:52:00
7:52 AM,30.9,26.1,82,30.07,10.0,Calm,Calm,-,N/A,,Clear,0,2013-02-25 12:52:00
8:52 AM,36.0,26.1,67,30.09,10.0,North,4.6,-,N/A,,Clear,350,2013-02-25 13:52:00
9:52 AM,37.9,27.0,65,30.09,10.0,North,6.9,-,N/A,,Clear,350,2013-02-25 14:52:00
10:42 AM,39.2,28.4,65,30.09,10.0,North,6.9,-,N/A,,Mostly Cloudy,350,2013-02-25 15:42:00
10:52 AM,39.0,27.0,62,30.10,10.0,North,4.6,-,N/A,,Mostly Cloudy,10,2013-02-25 15:52:00
11:36 AM,39.2,28.4,65,30.10,10.0,NNW,5.8,-,N/A,,Mostly Cloudy,340,2013-02-25 16:36:00
11:52 AM,39.0,28.0,65,30.11,10.0,NNW,5.8,-,N/A,,Overcast,340,2013-02-25 16:52:00
12:10 PM,39.2,28.4,65,30.10,10.0,NNW,5.8,-,N/A,,Overcast,330,2013-02-25 17:10:00
12:23 PM,39.2,28.4,65,30.11,10.0,North,8.1,-,N/A,,Overcast,350,2013-02-25 17:23:00
12:52 PM,39.0,28.0,65,30.13,10.0,NNW,8.1,-,N/A,,Overcast,340,2013-02-25 17:52:00
1:27 PM,39.2,26.6,61,30.12,10.0,North,8.1,-,N/A,,Overcast,350,2013-02-25 18:27:00
1:52 PM,39.0,27.0,62,30.14,10.0,NNW,8.1,-,N/A,,Overcast,330,2013-02-25 18:52:00
2:52 PM,39.9,27.0,60,30.15,10.0,North,4.6,-,N/A,,Mostly Cloudy,350,2013-02-25 19:52:00
3:52 PM,39.0,27.0,62,30.16,10.0,NNE,8.1,-,N/A,,Overcast,20,2013-02-25 20:52:00
4:52 PM,37.9,27.0,65,30.17,10.0,Calm,Calm,-,N/A,,Overcast,0,2013-02-25 21:52:00
5:52 PM,37.0,28.0,70,30.18,10.0,NNE,3.5,-,N/A,,Overcast,30,2013-02-25 22:52:00
6:52 PM,37.0,28.0,70,30.21,10.0,North,4.6,-,N/A,,Overcast,360,2013-02-25 23:52:00
7:52 PM,35.1,28.9,78,30.23,10.0,Calm,Calm,-,N/A,,Overcast,0,2013-02-26 00:52:00
8:52 PM,35.1,28.9,78,30.24,10.0,Calm,Calm,-,N/A,,Overcast,0,2013-02-26 01:52:00
9:52 PM,34.0,28.9,82,30.23,10.0,Calm,Calm,-,N/A,,Overcast,0,2013-02-26 02:52:00
10:52 PM,34.0,28.9,82,30.25,10.0,Calm,Calm,-,N/A,,Mostly Cloudy,0,2013-02-26 03:52:00
11:52 PM,34.0,28.9,82,30.25,10.0,Calm,Calm,-,N/A,,Overcast,0,2013-02-26 04:52:00